Regional Weather Roundup
Issued by NWS

Home | Current Version | Previous Version | Text Only | Print | Product List | Glossary On
Versions: 1 2 3 4 5 6 7 8 9 10 11 12 13 14 15 16 17 18 19 20 21 22 23 24 25 26 27
000
ASUS45 KBOU 211407
RWRCO

WEATHER ROUNDUP FOR COLORADO
NATIONAL WEATHER SERVICE DENVER/BOULDER CO
700 AM MST SAT JAN 21 2017

NOTE: "FAIR" INDICATES FEW OR NO CLOUDS BELOW 12000 FEET WITH NO
SIGNIFICANT WEATHER AND/OR OBSTRUCTIONS TO VISIBILITY.

COZ001>005-013-030-031-211500-
...NORTHWEST COLORADO...

CITY           SKY/WX    TMP DP  RH WIND       PRES   REMARKS
CRAIG          CLOUDY    17  12  80 SW5       29.34S WCI  10
HAYDEN         CLOUDY    18  12  79 E10       29.34R WCI   6
MEEKER         CLOUDY    22  17  81 E5        29.31S WCI  16
MOUNT WERNER   NOT AVBL
STEAMBOAT SPGS CLOUDY    12  10  91 CALM      29.35R
WALDEN           N/A     10   5  79 E6        29.36S WCI   1
$$

COZ006>008-011-211500-
...WEST CENTRAL VALLEYS...

CITY           SKY/WX    TMP DP  RH WIND       PRES   REMARKS
GRAND JUNCTION LGT SNOW  31  31 100 SE10      29.33R FOG     WCI  22
MONTROSE       CLOUDY    32  17  54 E13       29.34S WCI  22
EAGLE          CLOUDY    12  10  92 CALM      29.42R
RIFLE          CLOUDY    28  24  85 SW3       29.34R
DELTA          CLOUDY    34  31  90 NE6       29.35R WCI  29
NUCLA          CLOUDY    32  32 100 SE5       29.34R WCI  27
$$

COZ017>023-064>068-211500-
...SOUTHWEST COLORADO...

CITY           SKY/WX    TMP DP  RH WIND       PRES   REMARKS
DURANGO        LGT SNOW  29  26  89 E3        29.35R VSB 1
CORTEZ         SNOW      31  31 100 CALM      29.33S VSB 1/2
PAGOSA SPRINGS LGT SNOW  27  27 100 NE6       29.37S VSB 1   WCI  21
TELLURIDE      NOT AVBL
WOLF CREEK PAS CLOUDY    14  14 100 MISG      29.39S
$$

COZ009-010-012-014-032>034-037-058>063-211500-
...CENTRAL COLORADO...

CITY           SKY/WX    TMP DP  RH WIND       PRES   REMARKS
ASPEN          FAIR      14  11  87 CALM      29.31R
BUENA VISTA    FAIR       8   3  79 NW10      29.39S WCI  -6
COPPER MTN     FAIR      16   5  62 MISG      29.33S
BERTHOUD PASS  NOT AVBL
COTTONWOOD PAS NOT AVBL
GUNNISON       FAIR       8   3  80 E8        29.40R WCI  -4
KREMMLING      SNOW     N/A N/A N/A CALM      29.43S VSB 1/2
LEADVILLE      FAIR       3  -1  83 NE6       29.34S WCI  -8
MONARCH PASS     N/A     12   9  85 SW16G22   29.44R WCI  -4
SALIDA         MOCLDY    19  11  70 NW13      29.46R WCI   6
SUNLIGHT       SNOW      16  14  93 MISG      29.35S VSB 1/2
WILKERSON PASS FAIR      12   9  85 SW8G17    29.36F WCI   1
$$

COZ069>075-211500-
...SAN LUIS VALLEY/SANGRE DE CRISTO MOUNTAINS...

CITY           SKY/WX    TMP DP  RH WIND       PRES   REMARKS
ALAMOSA        CLOUDY    17  14  88 W8        29.39S WCI   7
LA VETA PASS   MOCLDY    21  19  93 NE14G26   29.36S WCI   8
SAGUACHE       FLURRIES  19  16  86 NW9       29.40S WCI   9
$$

COZ035-036-038>040-211500-
...NORTHERN COLORADO FRONT RANGE...

CITY           SKY/WX    TMP DP  RH WIND       PRES   REMARKS
DENVER INTL AP FAIR      21  17  84 S6        29.36S WCI  13
DMNS CITY PARK   N/A     24  22  94 E5G10     29.37S WCI  18
AURORA         PTCLDY    22  14  69 S6        29.35F WCI  15
FRONT RANGE AP PTCLDY    25  18  74 SE7       29.37  WCI  17
ERIE MUNI ARPT FAIR      21  20  95 CALM      29.37S
BOULDER MUN AP FAIR      27  23  86 SW3       29.35F
CENTENNIAL     FAIR      23  13  65 CALM      29.35F
BROOMFIELD     PTCLDY    23  25 100 CALM      29.35F
FORT COLLINS   FAIR      21  16  79 N5        29.37F WCI  15
LONGMONT       FAIR      23  20  87 NW6       29.38F WCI  16
$$

COZ041-046-047-076>085-087-088-211500-
...PIKES PEAK/PALMER DIVIDE AND SOUTHERN FOOTHILLS...

CITY           SKY/WX    TMP DP  RH WIND       PRES   REMARKS
COLO. SPRINGS  MOCLDY    22  18  85 NE9       29.36F WCI  12
A. F. ACADEMY  FAIR      20  15  82 N5        29.35F WCI  13
SCHRIEVER AFB  NOT AVBL
ELLICOTT       FAIR     N/A N/A N/A NW3       29.35F
FALCON         FOG       21  20  98 N7        29.36F VSB 1/4 WCI  12
FORT CARSON    FOG       27  25  93 NW5       29.35S VSB 1/2 WCI  21
LIMON          FOG       21  21 100 CALM      29.39S VSB 1/2
MONUMENT HILL  FAIR      19  14  79 S8        29.36S WCI   9
TRINIDAD       FAIR      20  13  74 W10       29.35F WCI   9
$$

COZ042>045-048>051-090-091-211500-
...NORTHEAST COLORADO...

CITY           SKY/WX    TMP DP  RH WIND       PRES   REMARKS
GREELEY ARPT   FAIR      19  18  95 E3        29.40
AKRON          FAIR      28  21  75 S12       29.38F WCI  18
BURLINGTON     FAIR      27  24  89 S5        29.40F WCI  22
WRAY           NOT AVBL
STERLING       FAIR      19  18  93 CALM      29.40S
HOLYOKE        FAIR      25  21  86 W8        29.42F WCI  16
FORT MORGAN    FAIR      26  24  91 CALM      29.40R
$$

COZ086-089-092>099-211500-
...SOUTHEAST COLORADO...

CITY           SKY/WX    TMP DP  RH WIND       PRES   REMARKS
PUEBLO         FOG       29  27  92 N3        29.38F VSB 1/2
LA JUNTA       FOG       25  23  92 NW3       29.40F VSB 1/4
LAMAR          FAIR      18  15  88 SW3       29.41R
SPRINGFIELD      N/A     23  20  88 SE7       29.37F WCI  15
$$




USA.gov is the U.S. government's official web portal to all federal, state and local government web resources and services.